Вернуться в каталог

CAT 4

АктивенНаукаHEO
NORAD 13011·PAYLOAD·🇪🇺 EU

Запущен Dec 20, 1981 с Guiana Space Centre

Loading…

Ближайшие Пролёты (ближайшие 24 часа)

TLE

СвежийSource: Space-Track

Эпоха: Sep 14, 2026, 14:58 UTC

1 13011U 81122B   26257.62384257  .00003959  00000-0  73835-3 0  9994
2 13011  10.6019  69.8046 6510313  88.1945 339.8719  3.31014354363828

Отслеживайте CAT 4 в реальном времени с AllMySat

Download on the App Store